Theta_e
328 332 336 339 341 341 343 341 339 334 333 332 332 329 322 322 326 332 318 335 340 340 340 340 339 339 336 337 339 336 332 331 331 328 326 321 313 308 309 309 309 319 322
324 334 335 338 341 341 341 342 340 338 334 333 332 330 325 326 328 333 320 330 337 339 339 338 338 337 337 337 336 335 334 332 330 329 327 319 310 309 309 309 314 318 311
320 331 334 339 341 342 341 341 341 338 337 333 332 331 329 329 332 336 327 326 329 333 334 335 330 328 329 333 334 333 332 331 330 328 324 316 310 312 311 312 324 329 334
315 328 335 336 341 341 341 341 340 341 337 335 333 332 332 332 335 337 336 334 336 336 336 334 333 324 321 323 325 326 327 327 326 324 319 329 330 316 324 324 335 337 337
309 320 331 334 337 340 341 341 340 340 337 337 334 334 333 334 337 337 338 337 336 334 335 335 333 326 324 322 321 322 323 323 324 321 325 330 332 322 332 333 336 337 336
307 315 325 332 335 338 339 340 340 340 338 337 335 335 334 334 335 338 338 337 337 333 336 335 333 326 324 320 320 321 322 322 321 318 327 331 335 331 335 335 337 337 336
305 306 315 325 331 336 337 338 338 340 339 337 337 334 335 334 335 336 338 338 335 333 335 335 333 329 322 319 320 324 321 318 315 328 329 335 334 333 335 336 336 335 335
304 304 305 311 318 328 336 337 337 337 338 337 336 334 334 334 335 335 337 338 336 334 335 335 334 331 322 320 316 315 315 315 319 329 332 334 334 334 335 334 333 333 332
304 304 304 304 307 311 324 333 336 337 338 337 336 334 334 334 335 334 335 337 338 336 335 335 333 331 320 320 316 312 313 314 330 330 331 335 334 335 333 332 332 332 332
303 303 302 302 303 306 308 318 326 334 336 337 337 336 334 334 334 334 334 335 337 337 336 335 333 329 320 318 316 315 315 319 330 331 332 332 334 333 333 332 331 330 327
302 302 302 302 302 302 304 305 313 320 329 334 336 337 336 334 333 333 333 334 335 337 336 334 333 327 319 321 313 323 321 322 330 330 331 333 333 332 331 330 329 327 325
301 301 301 301 302 302 302 303 304 307 308 323 327 332 336 335 335 334 333 333 334 336 336 334 332 325 319 323 314 324 326 325 330 330 330 330 331 331 329 326 325 325 321
299 300 300 301 301 302 301 302 304 304 304 305 314 319 324 332 335 335 335 334 334 335 335 333 330 322 319 326 317 323 327 327 329 329 329 329 326 325 324 323 322 320 313
298 298 300 300 300 301 301 301 302 305 305 302 303 307 311 322 331 335 335 335 335 335 334 333 328 322 322 324 326 325 328 329 330 329 329 328 324 323 324 323 318 316 313
296 296 298 299 299 300 301 301 301 302 304 307 306 304 304 308 316 325 333 330 333 332 332 329 325 326 324 322 323 324 329 330 329 329 329 328 324 323 323 324 322 319 317
294 294 296 298 299 299 300 301 301 301 302 303 307 310 310 303 305 312 326 326 322 325 324 325 322 325 325 323 324 324 326 330 329 329 328 328 325 324 323 323 325 324 321
293 293 295 296 298 299 300 300 300 301 301 302 304 309 314 313 304 303 310 325 327 330 328 325 326 327 325 326 324 325 327 328 329 328 329 328 326 325 324 323 321 326 326
291 292 293 295 297 299 302 302 302 303 301 301 302 304 307 311 306 302 303 314 325 326 329 330 327 325 324 320 327 324 323 326 326 326 328 327 325 325 325 323 322 322 324
290 291 291 294 295 298 300 300 302 304 305 305 301 301 305 313 311 306 301 303 323 326 325 328 327 326 325 323 324 326 324 322 325 327 327 326 325 324 323 324 322 323 322
289 290 290 292 294 297 298 299 301 305 305 302 304 301 301 308 314 303 301 301 307 316 321 326 330 328 326 325 325 323 322 323 322 324 325 325 324 323 322 323 323 323 323
288 289 290 293 294 295 297 299 301 306 305 303 301 301 301 301 301 301 303 301 307 317 320 324 328 328 326 326 325 326 326 322 323 322 323 324 323 321 322 323 323 322 323
287 288 288 291 294 295 296 298 299 303 307 308 306 301 301 302 302 301 303 301 302 317 320 326 325 327 326 325 326 324 320 318 322 322 321 320 319 319 321 322 323 322 322
286 287 288 291 292 294 296 298 299 301 302 304 305 305 308 309 302 301 301 305 306 310 319 323 323 326 326 324 326 323 321 320 317 316 318 320 320 320 320 321 322 322 322
285 287 289 290 291 293 296 297 298 300 303 307 308 309 309 306 301 301 301 302 303 314 317 323 322 323 323 325 325 324 324 322 318 310 308 309 309 315 315 318 317 317 317
284 286 288 290 291 292 294 297 298 299 301 303 304 303 304 302 301 301 300 302 303 308 320 320 322 323 322 323 324 324 324 322 319 316 309 307 307 307 308 313 312 312 314
284 286 287 289 291 292 294 297 298 298 299 302 302 302 301 302 302 301 302 303 306 308 320 322 321 323 324 324 324 322 323 321 321 318 313 306 305 303 304 304 307 310 310
Wind_Speed
15 17 10 7 6 8 11 14 15 15 15 15 14 13 14 17 18 19 21 22 21 22 21 21 20 18 19 20 20 20 17 16 14 10 7 5 7 9 12 14 16 14 14
18 16 12 7 6 8 11 14 16 17 18 17 16 15 15 18 19 20 23 25 22 21 20 19 18 17 17 17 18 17 17 17 14 10 7 7 8 10 13 15 15 11 15
17 15 13 8 8 9 11 14 16 18 18 18 17 16 17 18 20 21 23 24 24 23 21 19 17 15 16 16 16 17 17 16 14 12 9 8 10 12 13 16 14 14 14
16 15 13 10 12 12 13 15 15 17 20 20 19 19 19 19 20 22 24 23 23 23 21 19 15 12 14 15 16 16 17 16 14 12 11 10 10 13 13 15 13 16 16
15 16 13 12 14 15 16 15 16 16 19 21 22 22 21 21 20 22 24 23 23 23 21 19 14 12 13 14 15 16 16 16 14 13 11 12 13 14 14 18 18 20 21
15 14 14 13 13 17 18 18 17 17 17 20 23 24 24 24 22 22 24 24 23 23 22 18 14 11 12 13 13 15 16 16 15 13 11 15 15 17 18 20 22 20 17
16 15 14 12 15 12 17 20 19 18 18 20 21 24 25 26 25 25 25 25 24 24 22 17 16 11 10 13 14 15 15 16 15 12 12 13 16 19 21 22 20 17 13
16 16 16 14 13 13 12 13 14 20 21 21 22 23 25 26 27 27 26 26 25 25 23 19 16 12 11 13 15 17 16 16 15 12 17 15 17 21 20 18 15 14 14
15 15 15 16 15 13 13 13 15 16 22 24 23 26 26 27 27 27 26 27 26 27 24 21 17 13 11 14 16 16 16 18 15 14 19 17 18 19 16 16 15 14 13
17 18 21 19 19 16 13 14 13 15 19 21 24 24 28 28 28 27 28 28 28 28 26 23 20 15 13 14 17 16 18 19 17 14 18 18 18 17 15 15 13 13 12
18 22 24 25 21 19 17 14 15 12 16 17 20 25 25 26 27 27 27 28 28 29 27 23 20 17 15 16 19 19 19 21 18 17 17 14 19 16 15 12 11 11 13
22 23 22 25 25 22 19 17 14 14 13 14 13 14 21 26 27 27 28 28 28 30 29 25 21 18 17 20 22 22 22 22 17 16 15 16 17 16 14 14 14 14 13
24 23 22 24 26 25 24 19 17 13 11 10 12 10 9 19 30 24 24 26 27 30 31 30 24 21 20 20 23 26 25 23 18 17 18 19 18 14 12 12 13 14 14
25 26 26 25 25 24 25 24 21 19 14 10 10 10 8 7 19 20 26 24 25 27 28 29 24 22 22 24 21 25 26 23 22 21 19 19 18 13 10 8 9 11 12
24 25 25 25 27 26 23 25 26 23 21 22 15 10 11 9 8 10 11 12 20 25 23 10 16 16 18 24 26 25 26 26 23 20 20 17 20 15 12 11 10 11 11
24 24 25 25 25 25 25 23 25 26 23 21 25 22 12 13 12 8 9 11 9 17 15 16 14 26 21 22 25 25 26 30 24 21 19 17 22 17 15 14 15 15 15
25 25 24 24 22 22 24 25 22 25 25 23 24 23 23 20 14 17 12 13 14 19 23 26 23 28 24 21 25 26 26 26 26 22 22 19 19 20 20 18 17 18 18
24 24 24 23 22 19 19 21 20 18 24 24 23 22 24 22 17 16 19 17 16 18 23 25 29 29 22 23 30 27 25 26 25 26 24 20 17 19 26 24 20 19 17
22 23 23 22 22 18 22 22 19 17 18 23 20 23 25 30 24 22 20 22 20 19 22 27 33 32 26 25 23 24 25 27 27 25 23 22 21 21 23 26 24 22 20
21 21 21 23 21 17 22 20 17 16 17 21 18 21 18 25 30 24 23 23 21 22 23 25 30 34 29 30 28 28 28 28 28 28 30 29 22 21 22 23 25 23 21
20 19 19 21 18 14 20 18 14 10 11 16 22 18 18 18 21 26 25 22 23 23 23 26 31 32 32 31 31 33 37 36 39 36 40 38 30 23 25 28 27 23 23
20 17 17 16 16 14 21 21 15 18 15 11 13 19 17 16 20 22 20 24 23 26 25 25 28 30 33 40 34 26 17 20 27 22 23 22 29 32 30 33 31 34 31
19 17 16 15 12 12 18 22 18 17 11 11 11 10 9 19 21 21 23 22 24 24 26 27 30 31 31 32 37 25 14 11 22 20 24 31 37 36 33 33 37 37 33
19 17 15 14 11 11 15 17 16 12 10 7 6 12 12 20 19 22 24 26 26 19 25 29 31 31 31 32 36 40 27 20 19 14 19 21 25 33 34 37 30 31 31
18 17 15 13 11 9 10 14 13 12 12 13 13 14 14 18 19 22 23 25 25 28 21 27 30 29 33 33 43 37 40 33 23 16 19 26 25 27 30 31 33 30 33
17 16 15 13 10 9 6 10 11 11 13 13 13 14 17 17 18 20 22 24 25 28 27 26 30 31 33 33 33 40 46 42 33 27 21 31 30 26 27 27 29 30 30
Wind_Direction
336 330 313 321 262 257 245 250 238 227 225 221 214 210 196 189 185 182 177 172 170 169 171 173 176 181 179 180 182 185 184 182 183 185 190 195 190 178 169 162 160 163 168
337 329 322 291 240 249 246 247 245 233 224 217 214 210 201 196 190 188 182 179 177 176 177 179 182 187 186 189 194 194 194 195 193 199 208 205 188 176 168 162 149 182 172
338 322 317 297 242 252 241 246 250 240 228 221 216 211 206 201 197 195 190 188 188 192 196 199 203 201 198 201 203 203 206 208 208 207 203 198 182 173 163 161 160 176 183
349 332 320 296 260 252 256 238 245 248 231 224 217 214 210 208 204 202 198 196 196 194 196 201 205 216 208 208 211 213 213 214 210 203 186 171 182 177 169 167 168 167 150
345 336 316 305 275 253 253 242 241 250 240 226 221 217 215 214 211 208 206 206 201 202 204 203 218 222 210 209 212 212 211 209 207 197 165 177 202 177 174 181 167 157 149
334 326 314 299 289 269 253 251 235 237 238 234 228 222 220 219 218 214 213 212 212 208 204 211 224 210 212 216 214 208 204 203 200 181 186 196 190 175 168 164 163 163 159
334 318 306 295 280 287 269 266 245 235 226 231 231 228 224 223 222 221 220 215 214 212 212 218 216 223 217 219 205 208 204 201 195 173 187 206 188 177 169 165 169 176 185
327 325 307 298 296 286 280 260 265 251 233 225 224 225 228 228 225 226 226 222 216 214 215 217 219 220 227 219 209 206 205 203 176 187 197 199 194 181 178 178 182 187 197
318 323 310 295 291 302 283 269 249 247 242 236 224 223 224 227 230 230 230 228 223 217 217 216 220 225 231 220 210 207 200 182 162 192 204 196 187 183 184 192 194 202 213
316 313 308 297 289 287 289 280 271 250 242 233 232 228 227 227 225 227 232 235 230 224 220 218 220 228 231 223 211 199 193 181 168 198 204 206 187 196 204 206 207 217 225
311 304 299 299 293 285 285 282 276 272 249 238 228 228 231 231 231 229 229 233 232 227 222 223 224 227 227 222 212 199 193 189 183 193 211 209 201 203 203 213 222 232 242
314 307 300 295 292 287 281 275 275 278 287 256 234 227 230 231 229 231 231 233 233 225 218 220 222 224 220 217 208 204 202 198 199 189 205 231 218 215 234 243 246 245 244
312 311 309 294 289 286 280 274 266 270 278 281 263 240 233 237 233 231 235 234 232 232 225 217 210 218 217 208 209 205 205 202 198 198 209 225 227 224 245 252 246 241 234
304 301 302 303 290 283 276 271 267 256 261 273 272 263 248 241 235 235 237 242 234 234 235 209 203 207 212 205 205 212 206 204 205 200 214 223 215 215 228 242 235 229 224
303 299 294 298 296 286 275 264 262 259 254 252 264 272 260 247 238 240 234 242 232 245 218 193 182 210 214 207 206 215 212 213 214 208 209 223 211 220 225 222 223 227 224
300 301 296 292 293 290 280 263 254 256 254 251 254 257 260 270 257 238 215 219 196 230 221 237 250 246 224 211 213 217 218 220 220 217 218 224 217 224 231 230 232 230 235
302 300 299 295 297 292 284 270 251 247 251 247 250 248 255 257 267 255 232 218 213 213 228 233 225 218 231 228 223 224 220 224 230 226 223 224 222 223 233 236 241 241 235
301 298 295 292 290 295 291 278 267 246 243 243 250 249 245 254 262 263 252 228 222 226 229 232 218 211 213 239 229 225 229 229 236 239 236 235 232 230 231 235 239 244 250
302 298 295 290 287 295 277 269 258 244 232 236 240 252 249 250 258 258 256 241 216 225 228 235 222 219 221 230 229 219 217 226 232 229 227 225 225 226 232 231 238 245 250
304 298 294 287 279 298 284 270 255 257 231 229 230 242 254 245 250 256 246 240 234 233 234 235 236 236 231 221 218 218 241 221 235 243 245 236 234 236 240 238 237 239 247
306 302 294 283 274 289 285 275 234 209 249 234 232 235 242 242 230 234 251 246 233 233 234 223 236 236 220 219 221 222 220 238 245 236 238 244 256 251 247 248 237 219 209
311 308 301 284 273 275 277 269 254 218 197 197 228 224 233 242 236 230 231 238 233 231 232 225 229 227 218 231 210 196 180 189 190 198 205 235 248 242 249 243 234 224 214
313 309 310 295 281 278 274 275 255 238 248 235 232 235 224 234 243 239 236 225 229 232 231 228 229 225 216 225 223 201 190 194 194 200 196 225 225 220 218 210 202 221 230
315 317 315 306 288 275 271 270 255 231 219 204 203 204 221 244 244 246 242 239 229 218 238 233 233 225 210 208 215 227 218 217 188 198 211 205 196 197 194 199 208 218 203
319 324 321 317 299 282 267 263 252 227 231 226 238 236 241 253 252 251 250 246 237 223 228 236 232 232 226 224 222 218 217 222 218 200 194 200 197 197 196 201 201 213 227
327 334 331 318 304 295 267 254 246 237 233 226 235 242 254 261 263 258 251 244 239 231 231 234 232 231 230 235 230 227 229 221 222 214 207 192 197 198 201 205 209 214 216